User: anonymous   Login
Location: *
(37.5724°S, 58.0067°E)
Time: 11:45:31
(UTC+00:00)
Language:

SL-4 R/B - Orbit

View from above orbital plane
View from above orbital plane
View from above satellite
View from above satellite

Ground track
Ground track

The orbit data is extracted from the following two-line orbital elements,

1 39679U 14021B   20329.78326311  .00001247  00000-0  77505-4 0  9991
2 39679  51.6160  83.2848 0171817 141.3108 220.0316 15.06620187363519
Epoch (UTC): 24 November 2020 18:47:53
Eccentricity: 0.0171817
inclination: 51.6160°
perigee height: 427 km
apogee height: 665 km
right ascension of ascending node: 83.2848°
argument of perigee: 141.3108°
revolutions per day: 15.06620187
mean anomaly at epoch: 220.0316°
orbit number at epoch: 36351

The dashed part of the orbit path shows where the satellite is in the earth's shadow,  

DLR